ECMWFNIL_850_dewp_000.txt.gz
Dewpoint
-5 -5 -4 -3 -3 -3 -3 2 4 5 6 6 4 4 6 7 7 6 5 5 4 2 1 1 3 4 4 5 6 7 7 8 9 8 8 8 8 9 8 7 6 6
-6 -5 -6 -8 -7 -6 -4 -0 2 3 4 2 -1 -3 -3 -0 1 1 1 5 8 8 4 3 3 4 5 6 8 9 10 10 11 11 10 9 9 9 9 9 7 6
-6 -6 -8 -10 -9 -7 -4 -1 1 2 1 -2 -6 -7 -6 -4 -2 -1 1 6 9 9 6 4 4 5 6 8 9 10 11 11 11 11 11 11 10 10 10 10 9 7
-5 -6 -9 -9 -8 -5 -2 -0 1 1 1 -1 -3 -4 -3 -1 1 1 3 5 6 6 6 5 5 5 6 7 8 9 10 10 11 11 11 11 11 11 11 10 9 8
-4 -6 -7 -8 -8 -5 -2 -1 -1 -0 2 3 2 0 1 3 5 5 3 3 4 5 6 6 5 5 4 5 6 7 7 8 9 10 10 11 11 11 10 11 10 9
-3 -2 -4 -5 -6 -5 -3 -3 -3 -1 1 3 3 4 5 6 7 6 5 4 5 6 7 6 5 4 4 3 4 5 6 6 8 9 9 10 10 10 10 10 10 10
-2 -1 -1 -2 -3 -4 -3 -3 -3 -2 0 2 4 5 7 7 7 7 6 7 7 7 6 5 5 5 6 6 5 6 6 7 9 10 10 10 10 10 10 11 11 11
-2 -0 0 -1 -2 -4 -3 -3 -3 -2 0 2 4 7 8 8 8 8 8 8 8 7 7 6 6 7 8 7 8 8 8 8 9 10 10 9 9 10 10 10 10 10
1 2 1 -1 -3 -4 -3 -2 -3 -2 0 1 4 7 9 9 9 8 8 8 8 8 7 7 7 7 8 8 8 8 8 9 9 9 8 9 9 10 10 10 10 9
5 5 3 -0 -4 -4 -2 -1 -1 -0 2 3 4 7 8 8 8 8 7 7 6 6 6 7 8 8 8 8 8 8 9 8 8 8 8 8 8 9 9 9 9 9
6 3 3 1 -4 -3 -0 0 -0 1 4 5 6 7 7 7 7 7 6 6 6 6 6 8 9 9 8 8 7 7 7 7 7 8 8 8 6 6 7 8 8 8
6 1 3 0 -6 -3 -0 -0 -1 1 4 6 7 7 8 8 7 6 6 7 7 6 7 9 9 9 8 7 5 5 6 7 8 8 8 7 5 4 5 5 6 6
7 2 4 -0 -7 -4 -2 -4 -3 -0 3 6 9 10 9 7 6 6 6 6 6 6 8 10 10 9 8 6 5 6 7 7 7 6 6 6 5 4 4 5 5 5
10 8 6 1 -4 -4 -6 -7 -4 -2 2 7 10 10 7 4 4 6 7 6 6 7 9 11 10 9 8 7 6 6 7 7 7 6 6 5 6 6 6 6 7 6
10 8 6 4 2 -1 -5 -6 -5 -3 3 7 8 6 4 4 6 7 6 6 8 9 10 11 10 8 6 6 6 6 7 8 7 7 7 7 7 7 7 8 8 8
7 7 7 7 6 1 -4 -5 -3 -2 3 5 4 2 3 4 5 5 4 6 8 9 10 10 9 7 5 5 5 7 8 8 8 7 7 8 8 8 8 8 9 8
7 7 9 8 5 1 -4 -3 -2 -1 1 2 1 2 3 3 3 2 3 5 7 9 10 9 7 6 6 6 6 7 8 8 8 8 8 8 8 8 8 8 8 8
7 8 11 9 4 1 -2 -2 -0 1 2 2 2 3 4 4 3 2 4 6 8 9 10 8 6 6 7 7 7 8 8 8 8 8 8 8 8 8 6 6 6 7
8 9 11 9 5 4 1 -0 1 2 2 3 4 3 4 4 4 5 7 8 9 10 9 7 6 7 7 7 7 7 8 8 8 8 8 8 8 7 6 5 6 7
8 10 11 8 6 6 5 3 3 2 2 3 4 4 4 5 5 7 8 8 9 9 9 8 8 8 7 7 7 7 7 8 8 8 8 7 8 7 5 5 6 7
9 11 11 9 8 8 7 6 4 3 2 4 4 4 4 5 6 7 7 8 9 10 10 10 9 8 8 7 7 7 7 8 8 8 7 6 6 6 5 5 6 7
10 11 11 10 10 9 9 8 6 3 1 2 3 4 4 5 6 7 8 9 10 10 10 10 10 9 8 8 7 7 7 7 7 8 7 6 3 4 5 5 5 6
11 11 11 11 11 10 10 9 6 2 1 2 3 4 5 6 8 8 9 10 9 9 9 10 10 9 8 7 7 7 7 7 7 8 7 5 2 2 4 5 6 6
11 9 9 12 12 10 9 9 6 3 1 2 4 5 7 9 9 10 10 9 7 8 9 10 10 9 8 7 7 7 7 7 7 8 6 4 2 1 3 4 5 5
9 4 7 12 12 10 8 7 6 3 2 3 6 7 9 10 10 10 10 9 8 8 10 10 10 9 8 8 8 7 7 7 7 7 7 5 3 2 2 3 4 4
7 3 7 11 10 8 7 6 5 4 3 5 7 9 10 10 10 10 9 8 8 8 9 10 9 8 8 8 8 8 8 7 7 7 7 5 4 2 2 2 2 2

ECMWFNIL_850_dewp_003.txt.gz
Dewpoint
4 3 2 -0 -6 -7 -6 -9 -8 -7 -6 -3 -2 0 3 3 -0 -4 -3 -2 -1 -1 -1 -0 2 3 4 4 5 5 5 7 8 9 9 9 9 9 8 8 7 7
3 3 0 -3 -6 -8 -9 -9 -7 -5 -5 -2 1 2 3 2 -1 -3 -3 -4 -4 -1 1 1 2 3 4 4 5 5 6 7 9 10 10 10 10 10 10 10 9 8
2 1 -2 -6 -8 -10 -9 -7 -6 -4 -2 -0 2 2 2 -0 -2 -2 -2 -3 -1 4 6 6 5 4 4 5 5 5 6 6 8 10 10 10 10 11 11 10 10 9
3 -1 -4 -6 -9 -10 -8 -7 -5 -4 -2 -2 -1 -1 -3 -5 -5 -3 -2 -1 3 7 9 8 7 6 5 5 5 5 5 6 7 8 9 9 9 9 9 9 10 10
6 -1 -6 -6 -8 -7 -5 -6 -5 -4 -4 -4 -3 -5 -6 -5 -3 -1 2 3 5 7 8 8 8 8 7 5 3 3 4 4 5 6 6 7 7 7 8 9 10 10
8 1 -6 -6 -6 -3 -3 -5 -4 -3 -4 -5 -5 -4 -3 -1 1 4 5 6 6 6 7 8 9 8 6 6 6 5 4 4 5 5 6 7 7 7 8 9 9 9
6 1 -6 -5 -3 -1 -2 -3 -2 -2 -4 -4 -3 -1 1 3 4 6 6 7 6 7 7 8 7 7 7 7 8 7 7 6 6 7 7 9 9 8 8 9 10 10
4 2 -5 -3 -0 -1 -3 -4 -2 -3 -3 -2 -1 0 3 4 5 6 6 6 6 7 7 7 7 7 7 7 7 7 8 8 8 8 8 9 8 7 8 8 9 10
5 2 -3 -0 1 -2 -6 -7 -4 -2 -2 -1 0 1 3 4 4 5 6 7 6 6 7 6 6 6 6 7 8 8 8 7 7 7 7 7 7 7 8 7 7 7
6 1 -3 1 -0 -5 -6 -7 -6 -2 -1 0 2 2 3 3 3 5 6 7 6 6 6 6 6 6 8 9 8 8 7 6 6 6 7 7 7 8 7 6 4 4
9 1 -3 0 -1 -4 -3 -6 -8 -3 -1 0 2 2 2 1 3 5 6 6 5 6 5 5 6 8 9 8 8 7 6 4 5 7 7 7 6 6 5 4 4 4
11 3 -5 -1 -0 1 1 -4 -8 -4 -1 0 2 1 1 1 3 5 5 5 5 4 4 4 5 7 8 8 8 6 4 4 6 6 6 5 4 4 5 5 5 5
12 5 -6 -3 1 2 0 -5 -8 -5 -2 -0 1 1 1 1 3 4 5 6 5 3 2 2 4 7 8 9 8 5 4 5 5 4 3 3 4 5 6 6 7 7
13 7 -3 -3 2 2 -3 -9 -8 -4 -2 0 1 -1 -1 -0 1 3 5 5 2 0 1 3 5 7 8 9 7 4 3 4 4 3 4 4 6 6 7 7 7 8
12 9 -0 -1 3 0 -7 -9 -7 -5 -3 -0 -1 -3 -2 -2 -0 3 5 4 1 0 3 5 6 7 7 8 7 5 4 3 3 4 5 6 7 7 8 8 8 8
12 9 2 1 3 -2 -8 -7 -6 -5 -3 -2 -3 -4 -3 -2 0 4 5 3 0 1 4 6 7 6 6 7 7 6 4 4 4 5 6 7 8 8 8 8 8 8
13 10 3 2 4 -0 -6 -6 -6 -5 -4 -4 -5 -4 -3 -2 1 4 4 1 0 2 5 7 7 6 7 7 7 7 6 5 5 6 6 8 8 8 8 8 8 8
13 10 6 5 6 4 -1 -4 -4 -5 -4 -4 -4 -4 -2 -1 2 4 3 1 1 3 5 7 7 8 9 9 8 7 6 6 6 6 7 7 7 8 8 8 8 8
13 11 11 9 8 6 2 -0 -2 -4 -3 -2 -2 -2 -2 0 3 3 3 3 4 5 6 6 7 8 9 10 9 8 7 7 7 7 7 7 7 8 8 8 9 8
12 12 11 10 8 6 5 4 1 -2 -2 -1 -1 -1 -0 1 4 4 4 4 5 6 7 7 7 8 8 9 10 10 9 8 7 7 7 7 7 8 8 8 8 8
12 12 11 9 7 7 8 7 5 0 -1 -1 -1 0 0 2 3 5 4 5 6 7 7 7 9 9 9 9 9 10 11 10 9 8 7 7 7 7 8 8 7 6
13 13 11 9 8 8 9 10 8 4 -0 -1 -1 0 1 2 4 4 5 5 6 7 8 9 10 10 9 9 9 10 11 11 10 8 7 7 7 7 8 7 6 5
14 13 11 9 9 8 9 10 9 7 4 2 2 2 2 3 3 5 5 6 7 8 9 10 10 9 7 8 10 10 10 10 9 8 7 7 7 7 8 7 5 4
14 12 11 10 8 6 9 10 9 8 8 7 6 5 4 5 6 6 6 7 8 9 10 10 10 9 8 8 9 10 9 9 8 7 7 7 7 7 7 7 6 5
14 13 11 10 6 5 9 10 9 10 11 11 9 7 7 7 8 8 8 8 9 10 10 10 9 8 8 8 9 10 9 8 8 8 8 8 7 7 7 7 7 6
14 13 11 9 6 5 8 10 11 13 13 13 12 10 9 10 11 11 10 11 11 11 10 9 8 8 8 9 9 9 8 8 8 8 8 8 7 7 7 7 6 5

ECMWFNIL_850_dewp_006.txt.gz
Dewpoint
9 10 11 11 11 10 6 1 -3 -2 2 5 7 6 4 3 4 3 1 -2 -2 1 2 1 0 1 2 4 5 5 5 6 7 10 10 10 10 9 10 9 9 8
8 9 11 12 12 10 7 2 -4 -6 -3 1 2 2 2 3 3 1 -2 -3 -3 -2 -1 -1 -1 1 2 3 4 4 4 4 6 9 9 9 8 9 9 9 9 9
6 8 10 11 10 9 7 2 -3 -6 -5 -3 -2 -1 1 2 2 -0 -4 -4 -4 -4 -3 -2 -1 1 2 3 3 3 4 4 4 6 7 7 7 8 8 9 9 9
4 6 8 9 8 7 5 0 -5 -6 -6 -5 -4 -3 -1 -0 -0 -2 -5 -5 -4 -4 -2 -1 -0 1 2 3 3 3 3 3 4 4 5 6 6 7 7 8 8 8
0 3 5 7 8 7 4 -2 -7 -7 -8 -6 -4 -4 -3 -3 -3 -5 -7 -6 -4 -3 -1 0 2 4 5 5 5 4 3 2 3 3 4 5 5 6 6 7 7 7
-1 0 4 6 7 7 4 -2 -8 -8 -8 -7 -5 -5 -5 -5 -6 -6 -7 -5 -3 -1 1 3 5 6 7 7 6 5 3 3 3 3 3 4 5 5 6 6 7 7
0 -0 3 5 5 5 4 -2 -8 -10 -9 -7 -6 -7 -7 -6 -6 -6 -5 -2 0 2 4 5 7 7 7 7 6 6 6 6 5 5 6 6 6 6 6 7 7 8
3 2 3 2 1 3 4 -2 -9 -10 -9 -8 -7 -8 -8 -6 -5 -4 -1 2 3 5 6 7 7 7 7 6 6 7 7 7 7 7 7 7 7 7 7 7 7 8
4 5 5 2 -2 -1 -1 -5 -10 -11 -9 -7 -7 -7 -7 -5 -2 -0 2 4 5 6 7 8 7 7 6 6 6 6 7 7 7 7 7 7 7 7 7 7 8 7
5 5 6 4 1 -2 -4 -7 -9 -11 -10 -7 -7 -8 -7 -4 -1 1 4 6 6 7 7 7 7 5 5 5 6 6 6 7 7 7 6 6 6 7 7 7 6 4
6 6 7 5 3 3 -1 -8 -9 -11 -9 -4 -4 -7 -6 -4 -1 1 5 6 6 7 7 7 7 5 4 5 5 5 7 7 7 6 5 5 6 7 5 4 4 5
6 7 7 5 7 10 6 -3 -7 -8 -5 -1 -3 -6 -6 -3 -1 2 5 6 6 6 7 7 7 6 5 5 4 5 7 7 6 4 5 6 6 5 4 4 5 6
5 6 9 10 14 14 8 -0 -3 -3 -2 -1 -4 -6 -4 -3 -1 2 4 5 5 6 7 7 6 5 5 4 3 4 7 7 5 4 5 5 5 4 4 5 6 7
5 10 13 14 15 13 6 -0 -1 -2 -2 -2 -3 -5 -4 -2 -0 1 4 5 4 5 7 6 5 3 3 2 2 4 6 5 4 3 4 4 4 4 5 6 7 8
11 14 15 15 13 10 4 0 0 0 0 0 1 -1 -4 -2 1 3 5 5 4 6 6 4 3 2 2 2 2 3 4 3 3 3 4 4 4 5 6 7 8 8
14 15 15 15 14 10 5 2 2 4 2 -0 1 2 -1 0 2 4 5 5 4 6 5 2 1 2 2 2 3 4 4 4 4 4 4 4 5 6 6 7 7 8
15 15 15 15 15 12 8 4 4 4 1 0 4 3 1 2 3 4 4 3 3 4 3 0 1 2 2 3 4 5 5 5 6 6 6 6 6 7 7 7 7 7
16 15 15 15 15 14 11 7 5 3 0 5 8 8 4 3 3 3 2 2 2 2 1 -0 0 2 4 5 4 5 6 7 7 7 7 7 7 8 8 7 7 7
16 16 16 15 14 14 11 8 5 2 2 5 6 6 6 5 3 3 2 1 1 1 -0 -0 0 2 4 6 5 6 7 8 9 9 9 9 9 9 8 8 8 7
17 16 16 14 13 11 9 8 4 3 6 5 -0 1 5 5 3 2 1 0 -0 -0 0 1 2 3 5 6 7 8 9 10 10 10 10 10 10 10 9 9 8 7
17 16 15 14 13 11 9 7 5 5 6 4 0 1 3 2 2 2 1 -0 -0 1 2 3 4 5 6 8 9 10 10 11 10 10 10 10 11 10 9 8 8 7
17 16 15 15 14 12 10 7 6 6 6 5 4 3 1 1 3 3 2 1 1 2 3 4 5 6 7 8 9 10 10 10 9 9 10 10 10 10 9 8 7 7
16 16 16 15 14 12 10 9 8 7 6 6 6 4 2 2 3 3 4 4 2 3 4 4 5 7 8 9 10 10 10 9 9 9 10 10 9 8 8 8 7 7
16 16 16 16 15 12 10 10 9 8 6 5 5 4 3 4 5 7 9 8 5 4 5 6 6 7 8 9 9 9 9 9 9 10 10 9 8 8 7 8 8 8
16 16 16 15 15 13 11 10 9 8 6 5 5 5 5 7 9 11 12 11 9 7 7 6 6 6 7 7 8 9 9 8 9 10 9 8 8 7 8 8 8 8
15 15 15 15 14 12 11 10 9 8 6 5 6 8 9 9 10 12 13 13 12 12 11 10 10 9 9 9 8 9 8 9 10 9 8 8 7 7 7 8 8 8

ECMWFNIL_850_dewp_009.txt.gz
Dewpoint
12 12 12 13 13 13 13 13 14 14 12 9 7 5 5 6 7 8 7 5 5 5 6 8 7 3 2 3 3 4 6 6 6 7 7 7 7 7 7 6 6 7
11 11 11 12 12 12 12 12 13 13 11 7 4 4 5 5 5 5 4 5 5 3 4 5 4 2 1 1 2 3 5 6 6 7 8 9 8 8 7 7 7 8
10 9 10 11 11 11 11 12 13 13 10 6 3 4 4 4 2 2 1 2 3 1 1 2 2 1 1 1 2 3 4 6 6 6 8 8 8 8 8 8 8 8
9 8 9 9 8 9 10 12 14 13 9 4 1 2 1 0 -1 1 1 0 0 -1 -2 -1 -1 -0 0 1 2 3 4 5 6 6 7 7 7 7 7 7 7 7
8 8 8 8 7 8 10 12 14 13 9 3 -1 -1 -2 -4 -3 -1 0 -0 -1 -2 -3 -3 -2 -1 0 2 2 3 4 4 5 5 5 5 6 6 5 6 6 6
7 7 7 6 6 8 10 12 13 13 11 5 0 -2 -5 -7 -6 -3 -2 -1 -1 -3 -4 -4 -3 -1 1 2 4 4 4 4 4 4 4 3 4 4 5 5 5 6
6 6 7 6 6 9 11 13 14 14 12 6 2 -1 -4 -5 -6 -5 -3 -2 -3 -5 -5 -5 -3 -0 2 4 6 6 5 4 4 5 4 4 4 5 5 5 6 6
5 6 7 6 7 10 13 14 15 13 7 1 -0 -2 -5 -5 -6 -4 -2 -3 -5 -6 -6 -5 -2 1 3 6 7 7 5 4 4 5 5 5 6 6 6 6 7 7
4 5 7 8 10 13 15 15 14 12 5 -4 -3 -5 -7 -7 -7 -4 -1 -3 -6 -6 -5 -3 -0 2 5 7 7 7 6 5 5 5 6 7 7 7 7 7 7 7
6 7 9 10 12 13 15 15 15 14 10 -0 -5 -5 -8 -8 -7 -4 -2 -3 -5 -5 -3 -1 1 2 5 6 7 6 5 4 4 5 6 7 7 6 6 7 7 6
10 12 12 10 9 10 12 14 15 15 13 4 -4 -4 -6 -9 -8 -5 -3 -4 -4 -3 -1 1 1 2 4 5 6 5 4 4 4 5 6 7 6 5 5 6 6 5
14 15 11 6 6 6 9 13 14 15 14 7 -2 -3 -5 -10 -8 -5 -4 -3 -2 -1 0 1 1 2 3 5 5 5 4 4 4 5 7 7 5 4 5 5 5 3
15 14 10 4 2 3 6 9 11 14 14 7 0 -2 -6 -7 -2 -2 -3 -2 -2 -1 0 1 2 3 4 5 5 5 4 3 4 6 7 6 4 4 4 4 3 4
15 13 12 7 2 2 6 7 8 12 12 5 1 0 -5 -4 1 1 -1 -0 -1 -0 1 2 3 4 4 5 5 5 4 3 3 5 6 5 4 4 4 4 4 4
16 16 15 14 11 7 6 8 10 12 12 7 1 0 -4 -5 1 2 1 1 1 1 2 3 4 4 5 5 4 4 4 3 3 4 6 6 5 4 4 4 4 5
17 17 17 16 15 11 7 8 11 13 14 11 3 -0 -2 -3 -0 3 2 1 2 3 2 3 4 4 4 4 4 4 4 3 3 4 6 6 5 5 5 4 5 5
18 17 17 17 16 14 10 8 8 10 14 14 9 2 0 -0 1 4 2 0 2 4 3 3 4 4 5 5 4 4 4 3 3 5 6 6 6 6 5 5 6 6
18 17 18 17 15 15 14 11 8 6 10 14 13 5 1 2 3 4 2 2 5 6 5 5 5 5 7 6 4 4 4 4 4 5 6 6 6 6 6 7 7 8
18 17 18 17 16 15 14 14 13 9 7 11 12 6 2 5 5 4 3 4 6 6 6 7 7 6 8 8 5 4 4 5 5 6 7 7 7 8 9 9 10 10
18 18 17 17 17 16 15 14 14 13 9 10 11 8 7 8 7 4 5 7 5 3 5 7 6 5 8 8 7 5 4 5 7 8 9 9 10 10 10 10 10 11
18 18 18 18 17 17 16 15 15 14 12 12 12 10 10 10 8 5 6 7 3 -1 3 4 2 5 9 10 9 7 5 6 8 9 10 10 10 10 9 9 10 11
17 17 17 17 17 17 17 16 15 14 14 13 12 11 10 9 7 5 6 7 4 1 1 1 3 8 10 10 9 9 8 8 9 9 10 10 10 9 9 9 10 10
16 17 17 17 17 17 17 16 15 15 14 13 12 11 9 7 6 5 6 8 8 4 1 1 4 7 8 8 10 10 10 9 10 10 10 10 9 9 9 10 10 9
16 16 16 17 17 16 16 16 15 14 14 13 12 10 8 7 6 5 5 6 6 4 2 3 5 7 8 10 12 12 11 10 10 10 10 10 9 9 9 10 9 8
16 16 16 16 16 16 16 15 14 13 13 13 12 10 8 7 6 4 4 5 5 4 3 3 5 7 9 10 12 11 10 10 10 11 11 10 10 9 9 9 9 8
15 15 16 16 16 16 15 15 14 13 12 12 11 9 7 6 4 3 4 5 5 4 4 6 8 10 11 11 12 12 11 10 11 11 10 10 10 10 9 9 8 8

ECMWFNIL_850_dewp_015.txt.gz
Dewpoint
12 12 12 13 12 13 15 16 16 16 15 15 16 16 16 16 15 15 15 14 14 14 13 13 13 13 13 13 12 12 12 12 12 11 12 12 12 12 12 12 12 11
12 13 13 13 13 12 14 16 16 16 16 15 16 16 16 16 15 15 15 14 14 14 13 13 13 12 12 13 13 11 10 11 12 11 12 12 12 12 12 12 12 12
12 13 13 13 14 12 12 14 15 15 15 15 14 15 16 16 16 15 15 14 14 14 14 12 12 10 7 9 12 12 10 10 12 12 11 12 12 12 12 12 11 11
12 12 13 14 15 14 12 12 13 13 15 15 14 15 15 16 16 15 15 15 14 14 12 10 11 11 6 1 5 10 12 12 12 12 12 11 12 12 12 12 11 11
11 12 14 14 15 14 14 13 11 12 13 15 15 15 13 14 14 13 14 14 12 10 6 4 8 11 9 3 -0 6 11 13 12 12 12 12 11 12 12 12 12 12
12 13 14 14 14 14 15 14 13 13 13 14 15 14 11 12 12 13 12 11 8 4 0 2 6 8 8 6 2 2 7 11 12 12 12 12 11 11 11 11 12 12
11 13 13 13 13 13 14 14 15 15 14 14 14 12 11 12 12 11 9 3 1 -1 -1 3 4 4 5 5 3 -0 2 9 12 12 12 12 11 11 11 11 11 12
10 12 13 12 12 14 15 15 15 15 13 13 13 11 11 11 8 6 3 -2 -2 -3 -3 -0 0 1 3 4 2 -2 -2 7 10 10 11 12 11 11 11 11 11 12
9 12 12 12 13 15 16 15 15 15 13 11 11 11 10 7 2 -0 -1 -1 -0 -2 -4 -2 -1 0 3 4 4 -0 -1 7 10 10 11 12 12 11 11 11 11 11
9 11 11 13 15 16 15 14 15 15 13 11 10 10 8 5 1 0 1 -0 -1 -0 -2 -4 -2 1 3 4 5 4 1 4 8 11 12 12 11 11 11 11 12 12
9 11 12 15 16 14 11 13 15 14 11 9 8 7 6 4 3 3 3 2 1 3 1 -3 -3 1 2 2 3 4 5 6 9 11 10 8 6 8 10 11 11 11
9 10 14 15 12 8 8 12 14 12 10 9 7 7 5 4 6 7 5 3 2 4 4 -1 -3 -1 1 1 -1 1 7 10 11 10 7 2 -1 2 6 8 9 9
11 10 12 12 8 4 7 8 6 9 12 9 6 6 6 6 8 8 6 3 1 3 4 2 -2 -1 3 4 0 1 7 10 9 7 6 1 -4 -5 -1 2 5 9
17 14 12 11 9 8 8 6 4 8 10 6 2 5 5 5 7 8 8 6 2 2 5 4 -0 -0 3 4 2 3 8 10 8 6 4 1 -5 -5 -3 -3 -0 7
19 18 16 15 14 12 10 9 9 9 8 4 3 4 4 3 6 9 9 9 6 5 8 7 1 1 3 1 -0 0 5 9 10 7 4 -1 -5 -4 -1 -1 -2 4
20 19 18 17 16 14 11 11 12 11 10 10 9 9 8 8 9 11 11 11 9 8 10 9 3 2 3 -1 -3 -2 1 7 9 7 3 -1 -4 -2 -1 0 1 5
20 19 19 18 16 14 12 13 14 14 14 14 14 13 12 11 11 12 13 14 13 11 12 10 6 5 3 -2 -2 -2 -0 5 7 7 6 1 -3 -1 -1 0 3 7
20 19 18 18 17 15 14 14 15 16 16 16 16 15 15 14 13 13 14 15 15 14 14 12 9 7 4 -0 -1 -2 1 7 8 8 7 4 -1 -1 -0 2 5 7
19 18 17 17 16 15 15 16 16 17 17 17 17 17 17 16 15 15 15 15 15 15 15 14 12 9 5 2 0 -2 2 7 9 7 5 2 -0 -0 0 3 5 7
19 18 17 17 16 15 16 16 16 17 17 17 17 17 17 17 16 16 16 16 16 15 15 14 14 11 7 3 0 -0 2 6 8 7 5 2 1 0 0 2 4 6
19 19 17 16 17 17 16 15 16 17 18 18 18 17 17 17 17 16 16 16 16 15 14 14 13 12 10 5 1 1 4 5 7 7 5 3 2 1 1 1 2 6
20 19 17 17 17 17 15 15 16 17 18 18 18 18 17 17 16 16 16 16 16 15 15 13 13 12 11 6 2 3 5 6 5 5 4 3 1 0 2 2 5 8
19 19 18 17 17 14 12 14 16 17 18 18 17 17 17 17 16 16 16 16 15 15 15 14 13 12 10 6 4 4 5 6 6 4 3 2 1 2 2 3 7 9
19 19 18 17 16 14 12 13 14 15 16 16 17 17 17 17 16 16 16 16 15 15 15 14 13 12 9 6 4 5 6 6 6 5 3 2 2 2 2 3 6 7
18 18 17 17 17 17 16 15 15 15 15 16 16 16 17 17 16 16 16 15 15 15 14 14 13 12 9 6 6 6 6 6 5 3 3 3 2 2 3 3 3 4
17 17 17 17 17 17 17 17 16 16 16 16 16 16 16 16 16 16 16 15 15 14 14 13 12 10 8 6 6 7 6 6 6 4 3 2 2 2 3 3 3 6

ECMWFNIL_850_dewp_021.txt.gz
Dewpoint
9 9 10 11 12 12 13 14 14 14 14 12 10 9 10 9 10 11 11 10 8 7 9 10 11 10 10 10 10 10 12 12 12 11 7 4 3 3 5 9 10 11
9 9 10 11 11 12 13 14 14 13 12 11 9 8 9 10 11 12 12 11 9 9 10 9 9 9 8 9 8 10 12 12 11 10 6 4 5 4 6 8 10 11
10 9 9 10 11 11 12 13 14 13 11 10 9 9 10 11 12 13 13 11 9 10 11 9 8 7 6 6 6 8 11 10 9 7 6 6 6 5 7 8 9 9
10 9 9 10 11 11 11 13 13 12 11 9 9 9 11 12 13 13 12 10 10 12 12 10 9 7 4 2 0 4 9 10 8 5 5 8 7 5 7 9 9 9
11 9 9 10 10 11 11 12 12 11 10 9 9 9 11 12 13 13 12 10 10 12 12 11 11 8 4 -0 -3 -3 3 6 5 3 2 6 7 5 6 8 10 10
12 9 9 9 10 11 11 11 11 10 10 9 9 9 11 12 12 13 12 10 10 12 13 12 12 10 6 2 -2 -6 -5 -3 -1 0 0 2 5 6 6 8 9 10
13 10 8 9 10 11 11 11 11 10 9 9 9 10 11 12 12 12 12 11 11 12 13 13 13 12 9 5 0 -4 -6 -8 -6 -3 -2 0 4 6 7 7 8 10
14 10 9 10 10 11 11 11 11 10 10 9 8 9 11 11 12 12 12 12 12 13 13 13 13 12 11 9 4 -1 -4 -6 -7 -5 -3 -0 2 4 5 6 7 9
15 11 9 10 11 10 10 10 10 10 10 9 8 8 10 11 12 12 13 13 13 13 13 14 13 13 12 11 8 3 -1 -3 -5 -4 -1 1 2 4 4 4 5 6
15 13 11 10 10 10 9 9 10 10 10 9 7 7 9 10 12 13 13 13 13 13 13 13 14 13 13 12 11 7 2 -1 -2 -1 1 2 2 4 5 4 3 3
16 14 12 11 10 9 9 9 10 10 10 9 7 6 7 10 11 12 12 12 12 12 12 13 13 13 13 12 12 10 5 1 0 -0 1 2 2 3 4 4 3 3
16 15 13 11 10 9 9 9 10 10 10 9 7 5 6 9 10 10 9 9 9 10 11 12 13 13 13 12 12 11 8 4 2 1 2 2 1 1 3 3 2 3
15 14 12 11 9 8 8 9 9 9 9 9 7 5 5 7 8 8 7 7 8 9 10 12 13 13 13 13 13 12 10 7 3 2 2 2 1 3 4 4 4 4
14 12 11 10 8 8 9 9 9 9 9 9 8 7 5 6 7 8 9 9 10 10 11 13 14 14 14 14 14 13 12 9 5 3 2 3 3 4 8 9 8 6
13 12 12 11 10 10 10 10 9 9 10 10 10 9 7 8 10 11 12 12 12 13 14 14 15 15 15 15 14 14 13 11 8 5 4 4 3 4 8 11 10 8
13 13 13 12 11 10 10 10 11 10 11 12 12 11 11 12 13 13 13 13 14 15 15 15 16 16 15 15 15 14 14 12 10 8 5 4 4 5 9 10 10 11
15 14 14 13 11 11 11 12 12 13 13 14 14 14 14 15 15 15 15 14 15 16 16 16 16 16 16 16 16 15 14 13 12 10 7 6 6 9 11 11 12 12
16 15 14 13 13 13 13 14 14 15 15 15 15 15 16 16 16 16 16 16 16 16 17 17 17 17 17 17 16 16 15 14 12 11 10 8 8 10 12 12 12 11
15 15 15 14 14 14 15 15 16 16 16 16 16 16 16 16 17 17 17 17 17 17 17 17 17 17 17 17 16 16 15 14 13 12 11 10 10 12 13 13 11 8
14 15 15 15 15 15 16 16 17 17 17 17 16 16 17 17 17 17 17 17 17 17 17 17 17 17 17 17 16 16 16 15 13 12 12 11 12 13 13 12 9 5
14 14 15 16 16 17 17 17 17 17 17 17 17 17 17 17 17 17 17 17 17 17 17 17 17 17 17 17 17 16 16 15 15 13 12 11 12 12 12 10 7 4
14 14 15 16 17 17 18 18 18 18 18 17 17 17 17 17 17 17 17 17 17 17 17 17 17 17 17 17 17 17 16 16 15 14 13 12 12 12 12 10 7 5
14 15 16 17 18 18 18 19 18 18 18 18 18 17 17 17 17 17 17 17 17 18 18 17 17 17 17 17 17 17 16 16 15 14 14 13 12 13 13 10 8 6
14 16 17 18 18 18 18 19 19 18 18 18 18 17 17 17 17 17 17 17 17 17 17 17 17 16 16 16 16 16 16 16 15 15 14 13 13 13 12 9 7 7
14 16 17 18 18 18 19 19 19 19 19 18 18 18 18 18 17 17 17 18 18 17 17 17 16 16 15 15 16 16 16 16 15 15 14 12 12 11 10 7 6 8
15 17 18 18 18 19 19 19 19 19 19 19 19 18 18 17 17 17 17 18 18 17 17 17 16 16 16 15 16 16 16 16 15 15 14 12 11 10 8 6 5 6

ECMWFNIL_850_dewp_024.txt.gz
Dewpoint
13 12 11 10 9 10 12 14 14 13 12 12 13 12 12 10 9 10 10 10 11 11 9 7 5 6 8 9 9 10 11 10 9 9 8 5 1 -0 2 7 7 6
14 12 11 10 9 9 11 13 13 13 12 12 13 12 12 11 10 10 10 10 11 11 9 7 5 6 8 8 8 9 9 9 9 8 7 4 2 0 1 6 7 7
14 13 11 10 10 9 9 12 13 12 12 12 13 13 12 11 10 10 10 10 11 12 10 7 6 7 8 8 7 8 7 7 7 8 6 4 3 1 -0 3 6 8
14 13 12 11 10 9 9 11 12 12 12 12 12 13 12 12 11 11 10 10 11 12 12 9 7 7 8 8 7 7 6 5 5 6 6 4 4 3 -0 2 5 8
13 12 12 11 10 9 9 10 11 11 12 12 12 12 13 12 11 11 11 11 12 13 12 11 9 8 8 7 6 3 3 3 2 4 3 2 3 3 2 2 5 7
14 13 12 11 11 10 10 9 10 11 11 11 11 12 12 11 11 11 10 11 12 13 13 11 9 9 9 7 4 1 -1 -2 -2 0 1 -1 -0 2 2 3 5 6
14 13 13 12 11 11 10 9 10 10 11 11 11 11 12 11 10 10 10 11 12 12 13 11 10 10 10 9 6 2 -2 -4 -4 -3 -2 -3 -2 -1 1 2 3 5
14 14 14 13 12 11 10 10 10 10 11 11 11 11 11 11 10 9 10 11 12 13 13 11 10 10 11 11 9 5 1 -3 -5 -5 -5 -4 -3 -2 -1 0 3 4
14 14 15 14 13 11 10 10 9 10 10 11 10 10 11 11 10 9 9 10 12 12 12 12 11 11 12 12 12 10 6 1 -3 -5 -6 -5 -4 -2 -1 -0 2 4
14 14 15 14 13 11 10 9 9 10 10 10 10 10 11 11 10 9 9 10 11 12 12 12 12 11 12 13 13 12 11 8 4 -1 -5 -6 -5 -3 -2 -0 2 4
14 14 14 14 13 10 8 8 9 10 10 10 11 10 11 11 10 10 9 9 10 11 12 13 12 12 12 13 13 13 13 12 10 7 2 -2 -4 -4 -2 -1 1 3
15 14 14 13 12 9 7 7 9 10 10 10 10 10 11 11 10 10 9 8 9 10 12 12 13 13 13 13 13 14 14 14 13 12 9 4 -1 -5 -3 -1 0 3
15 14 12 11 10 7 6 6 8 9 9 9 10 10 11 11 11 10 9 8 9 9 10 12 13 13 13 14 14 14 14 14 14 13 12 10 4 -2 -3 -1 1 2
16 14 11 9 8 7 6 6 7 8 9 9 10 10 10 10 10 10 10 10 9 9 10 11 13 13 14 14 14 14 14 14 14 14 13 12 9 4 0 -0 1 3
16 15 12 10 9 8 8 7 7 8 9 10 10 10 10 10 10 11 11 11 11 11 11 12 12 13 13 13 13 14 14 14 14 14 14 14 12 9 4 1 1 3
16 15 14 12 10 9 8 7 7 8 10 11 11 10 10 10 11 12 12 12 12 11 11 12 12 12 11 12 12 13 14 15 15 15 14 14 13 11 8 4 3 2
16 16 15 13 11 9 8 8 8 9 10 11 11 11 11 12 13 13 13 13 12 11 11 11 11 11 11 11 12 14 15 15 15 15 15 15 14 13 10 7 6 4
16 16 15 14 13 11 9 9 10 11 11 12 12 12 12 13 14 14 14 14 13 12 12 11 10 11 11 12 14 15 15 16 16 16 16 15 15 14 12 10 8 6
16 16 16 14 13 12 11 12 13 13 13 13 13 13 14 14 15 15 14 14 14 13 12 12 12 12 13 14 15 16 16 16 16 17 16 16 15 15 13 12 9 7
16 16 16 14 13 13 13 14 14 13 14 15 15 15 15 15 15 14 14 14 13 13 13 13 14 15 15 16 16 17 17 17 17 17 16 16 15 15 14 13 11 9
15 16 15 15 14 14 15 15 15 15 16 16 16 16 16 15 14 14 14 13 13 14 14 15 16 16 16 17 17 18 18 18 17 17 17 16 16 15 14 14 12 10
15 15 15 15 15 15 16 15 15 16 16 17 17 17 16 15 15 14 14 14 15 15 16 17 17 17 17 18 18 18 17 17 17 17 17 16 16 16 15 13 12 11
15 15 15 15 15 15 15 15 15 16 16 17 17 17 16 16 15 15 15 16 16 16 17 17 17 17 18 18 18 17 17 17 17 17 17 16 16 16 15 13 13 12
15 15 15 15 15 15 15 15 15 15 16 15 15 15 15 15 16 16 16 17 17 17 17 17 18 18 18 18 18 17 16 16 16 16 16 16 16 15 14 14 13 13
15 15 15 15 15 15 15 16 15 15 15 14 15 15 16 16 17 17 17 17 17 17 17 18 18 18 18 18 17 16 15 15 16 16 16 16 16 15 14 14 13 13
15 15 15 15 15 15 15 15 15 15 15 15 16 16 17 17 17 18 18 17 17 17 18 18 18 18 17 17 16 14 14 15 16 16 16 16 16 15 14 14 13 13

ECMWFNIL_850_dewp_027.txt.gz
Dewpoint
15 14 14 14 14 14 13 11 9 9 9 10 11 11 11 11 11 12 13 12 11 9 10 10 9 7 4 5 5 5 7 7 6 8 9 9 8 5 3 5 7 7
15 15 14 14 13 13 14 13 10 9 9 11 11 11 12 11 11 12 12 12 10 9 9 10 10 8 6 5 4 5 6 7 6 7 8 8 8 5 0 0 3 5
15 15 14 14 13 12 12 13 12 10 10 11 12 12 12 12 12 12 12 12 11 10 9 10 11 10 7 5 5 4 5 5 5 5 6 7 7 5 -0 -3 -1 3
14 14 14 14 13 12 11 12 12 11 10 11 12 12 12 12 12 12 12 12 12 11 10 10 11 10 7 6 5 4 3 3 4 5 5 5 5 4 1 -2 -3 1
14 14 14 14 13 13 11 11 11 11 10 10 12 12 13 13 13 13 12 12 12 11 10 10 11 11 8 6 5 4 3 2 3 5 5 4 3 2 1 -0 -2 -1
14 14 14 14 13 13 11 9 10 11 10 10 11 12 12 13 13 13 12 12 12 11 11 10 11 12 10 8 6 5 3 2 3 4 5 3 2 2 1 0 -1 -1
14 14 14 14 14 13 11 8 8 10 10 10 11 11 12 12 13 12 12 12 12 11 10 10 11 12 11 9 8 6 4 3 3 4 3 1 1 1 1 1 0 -0
14 14 14 14 14 14 12 8 7 9 10 10 10 10 11 12 12 12 12 12 12 11 10 10 10 12 12 11 9 8 6 4 2 1 -1 -2 -1 -1 1 2 2 1
14 14 14 14 14 14 12 8 6 7 9 10 10 10 10 11 12 12 11 12 12 11 11 10 10 12 13 12 10 9 8 5 2 -1 -3 -4 -4 -3 -1 2 3 3
14 14 15 15 14 14 13 9 6 6 8 9 9 9 10 10 11 12 11 12 12 12 11 10 10 11 13 13 12 10 10 8 7 4 0 -3 -4 -5 -3 -0 2 3
14 14 15 14 14 14 13 10 7 6 6 8 9 10 10 10 11 11 12 11 12 12 11 11 11 11 12 13 12 11 11 10 10 9 7 4 0 -2 -3 -3 -1 1
14 14 15 14 14 14 13 12 9 7 6 7 8 9 10 10 10 11 11 11 11 11 12 11 11 11 12 12 13 13 12 11 11 11 11 10 7 4 1 -1 -2 -2
14 14 14 14 14 14 14 13 11 9 6 6 7 8 9 10 10 10 11 11 11 11 12 12 12 11 11 12 12 13 13 12 12 12 13 13 12 10 8 6 3 0
14 14 14 14 14 14 14 14 13 11 8 6 6 7 8 9 9 10 10 11 11 11 12 12 13 12 11 12 12 13 13 13 13 13 13 14 14 13 12 11 10 7
14 14 14 14 15 15 14 14 14 13 11 9 6 5 6 7 9 10 11 11 11 12 12 12 12 12 11 11 12 13 14 14 14 14 14 14 14 14 14 14 13 12
15 15 15 15 15 15 15 14 14 14 14 11 7 4 5 6 8 10 11 12 12 12 12 12 11 11 11 11 12 13 14 14 14 14 15 15 15 14 14 14 14 14
15 15 15 15 15 15 15 15 15 15 15 13 10 7 5 5 7 9 10 12 12 12 12 12 11 11 11 11 12 13 14 14 15 15 15 15 15 15 15 15 15 14
15 15 15 15 15 15 15 15 16 16 15 14 12 9 6 5 6 8 9 11 12 12 12 11 10 10 11 12 12 13 13 14 14 15 15 15 15 15 15 15 15 15
15 15 15 15 15 15 15 16 16 16 16 15 13 11 8 6 5 6 8 10 11 12 12 11 10 11 11 12 12 13 13 14 14 14 14 15 15 15 16 15 15 15
15 15 15 15 15 16 16 16 16 16 16 15 14 12 10 7 5 6 7 8 10 10 10 10 11 11 12 12 12 13 13 14 14 14 15 15 16 16 16 16 16 16
15 15 15 15 16 16 17 16 16 16 16 15 14 13 10 7 6 6 6 6 7 8 9 10 11 12 12 12 12 13 14 14 15 15 16 16 16 17 17 17 16 16
15 15 15 16 17 17 17 17 16 16 16 15 15 13 11 10 9 8 7 7 7 8 9 10 11 12 12 12 13 14 14 15 16 16 16 17 17 17 17 17 16 16
15 15 16 16 17 17 17 17 16 16 16 16 15 14 13 12 10 9 8 8 7 8 9 10 11 12 12 13 13 14 15 16 16 17 17 17 18 18 17 17 16 16
15 16 16 17 17 17 16 16 16 16 16 16 15 15 14 13 11 11 9 8 8 9 9 11 11 12 12 13 14 15 16 17 17 18 18 18 18 18 17 17 16 16
15 16 16 16 16 16 16 16 16 16 16 16 16 16 15 14 13 12 10 8 8 9 10 11 12 13 13 14 15 16 17 18 18 18 18 18 17 17 17 17 16 16
15 16 16 16 16 15 16 16 16 16 16 16 16 16 16 15 14 13 12 11 10 10 12 13 14 14 15 16 16 17 18 18 18 18 17 17 17 16 16 16 15 15

ECMWFNIL_850_dewp_030.txt.gz
Dewpoint
14 14 13 13 12 11 11 11 10 10 9 9 9 9 8 8 8 10 13 14 14 14 14 14 14 12 11 10 8 4 2 4 4 5 6 6 6 6 7 8 8 8
14 14 14 13 13 13 12 12 11 10 9 9 9 8 8 9 8 10 13 13 13 13 14 14 12 10 9 9 7 4 2 3 4 4 5 5 5 5 7 8 8 7
14 14 14 14 14 13 13 13 12 11 10 10 9 9 8 8 8 10 13 13 13 13 13 13 12 9 8 8 7 5 3 3 4 4 4 3 4 5 6 7 8 7
14 14 14 14 14 14 14 14 13 12 12 11 10 10 9 8 8 10 12 13 13 13 13 13 12 9 8 9 8 7 4 3 4 4 4 2 3 3 4 5 7 7
13 14 14 14 14 14 14 14 14 13 12 11 11 10 10 8 8 10 12 13 13 13 13 13 13 11 9 9 9 8 6 4 3 3 3 2 1 2 3 4 5 5
13 14 14 14 14 14 14 14 14 13 12 11 11 11 10 9 8 10 12 13 13 13 13 13 13 12 10 10 10 9 7 4 3 3 3 1 1 2 2 3 4 3
14 14 14 14 14 14 14 14 14 14 13 12 12 11 10 9 8 9 11 12 13 13 13 13 13 13 11 10 10 10 8 5 4 3 2 1 1 1 2 3 3 3
13 14 14 14 14 14 14 14 14 14 13 13 12 12 10 9 8 8 9 11 13 13 13 13 13 13 12 11 10 10 9 7 5 3 2 1 0 -0 0 2 3 3
13 13 14 14 14 14 14 14 14 14 13 13 13 12 11 9 9 8 8 10 12 13 13 13 13 13 13 11 10 10 10 9 7 5 3 1 -1 -2 -1 1 2 2
13 14 14 14 14 14 14 14 14 14 14 14 13 13 11 9 9 9 8 9 10 12 13 13 13 13 13 11 9 9 11 11 9 7 6 3 0 -3 -3 -1 -0 1
13 14 14 14 14 14 14 14 14 14 14 14 14 14 12 10 9 9 8 8 9 10 11 12 12 13 12 12 10 9 10 11 11 10 8 7 5 2 0 -1 -2 -2
13 13 13 14 14 14 14 14 14 14 14 14 14 14 13 11 9 9 9 8 8 9 10 11 12 12 12 11 11 10 10 11 12 12 11 10 9 8 7 5 3 1
12 13 13 14 14 14 14 14 14 14 14 14 14 14 13 11 9 8 8 8 7 8 9 10 11 11 11 11 11 11 10 10 11 12 12 12 11 10 10 10 10 9
12 13 13 13 13 13 14 14 14 14 14 14 14 14 13 11 9 7 8 8 7 7 8 9 10 10 11 11 11 11 11 11 11 12 12 13 12 12 11 12 12 12
12 13 13 13 13 14 14 14 14 14 14 14 14 13 13 11 9 7 7 7 7 7 8 8 9 10 10 10 10 11 11 11 11 11 12 12 13 13 13 12 13 13
13 13 13 13 14 14 14 14 14 14 14 14 14 13 12 11 10 8 7 6 7 7 7 8 8 8 9 9 10 10 11 11 11 11 11 12 13 13 13 13 13 14
13 13 14 14 13 14 14 14 14 14 14 14 14 13 11 11 10 9 7 6 6 6 7 7 7 7 7 8 9 10 10 11 11 12 12 12 13 13 14 14 14 14
13 14 14 14 14 14 14 14 14 14 14 14 14 13 11 10 10 9 8 7 6 5 6 6 6 6 6 7 8 9 10 11 11 12 12 13 13 13 14 15 15 15
13 14 14 14 14 14 14 14 14 14 14 14 14 13 12 11 9 8 9 9 7 5 5 4 4 4 5 6 7 8 10 11 11 12 12 13 13 14 14 15 15 16
13 14 14 14 15 15 15 14 14 14 14 14 14 14 13 13 11 10 9 9 7 5 4 4 3 3 3 5 6 8 9 10 11 12 12 13 13 14 15 15 16 16
13 14 14 15 15 15 15 15 14 14 14 14 14 14 14 14 13 11 10 9 7 7 6 3 1 2 3 4 5 7 9 10 12 13 13 13 14 15 15 16 16 16
13 14 14 15 15 16 16 15 15 14 14 14 14 14 14 14 14 13 12 11 10 9 7 3 -0 1 2 3 5 7 9 11 13 14 14 14 15 15 15 16 16 16
14 14 15 15 16 16 16 15 15 14 14 15 15 15 15 15 15 15 14 14 13 11 7 3 1 1 2 2 4 7 9 12 13 14 15 15 15 15 16 16 17 17
14 14 14 14 15 15 15 14 14 14 14 14 15 15 15 15 15 15 15 15 14 11 7 4 3 2 2 3 5 7 10 12 14 15 15 15 15 16 16 17 17 17
14 14 14 14 14 14 14 14 14 14 14 15 15 15 15 15 15 16 16 16 15 13 10 8 8 6 5 6 7 9 11 13 14 15 15 15 16 16 17 17 17 17
13 13 13 13 13 13 14 14 14 15 15 15 15 15 16 16 16 16 16 16 16 15 14 12 11 10 9 9 9 10 12 14 15 15 16 16 16 17 17 17 17 17

ECMWFNIL_850_dewp_033.txt.gz
Dewpoint
12 12 11 11 10 9 8 8 8 8 8 8 8 8 7 7 7 8 8 8 8 8 10 12 13 14 14 14 14 13 11 9 5 2 1 3 4 5 5 6 7 8
13 13 13 13 12 11 10 9 8 8 8 8 8 8 8 8 8 8 8 8 8 8 10 12 13 14 14 13 13 12 11 7 3 1 1 2 3 5 5 6 7 7
13 13 13 13 13 12 12 11 11 10 9 9 9 9 9 9 8 8 8 8 8 8 10 12 13 13 14 13 12 11 9 6 3 1 2 2 2 3 4 6 7 8
13 13 13 13 13 13 13 13 13 12 11 10 10 10 10 10 9 8 8 8 8 8 10 12 12 12 13 13 11 9 8 6 4 2 2 2 2 3 4 6 7 8
12 12 12 13 13 13 13 13 13 13 12 11 10 10 10 10 10 9 8 8 8 8 9 11 12 12 13 13 11 9 7 6 5 3 2 2 2 3 5 6 7 8
12 12 12 13 13 13 13 14 14 13 13 13 12 12 11 10 10 10 9 8 8 8 9 11 12 12 12 13 12 9 8 7 6 4 3 2 2 4 5 6 7 7
12 12 12 12 13 13 13 13 14 13 13 13 13 13 13 12 11 10 10 9 8 8 9 11 11 11 12 13 12 10 9 7 6 5 4 3 2 3 5 6 6 6
12 12 12 12 12 13 13 13 13 13 13 13 13 13 14 13 11 11 10 10 9 8 8 10 11 11 12 12 13 12 10 8 7 6 5 3 2 3 3 4 5 5
11 12 11 11 12 12 13 13 13 13 13 13 13 13 14 13 12 11 10 10 10 8 8 9 11 11 11 12 13 13 11 8 7 7 7 5 3 2 3 3 4 3
11 11 11 11 12 12 13 13 13 13 13 13 13 13 13 13 12 11 11 10 10 9 8 8 10 10 11 11 12 13 12 10 8 7 8 7 6 4 3 3 3 2
10 10 11 11 12 12 12 12 13 13 13 13 13 13 13 13 12 12 11 10 10 9 8 8 9 10 10 11 11 12 12 11 10 8 8 8 8 7 6 5 2 1
10 10 11 11 12 12 11 12 12 13 13 13 13 13 13 13 13 11 10 9 9 8 8 8 8 9 10 10 11 11 12 12 11 10 8 8 9 9 8 7 5 3
9 10 10 10 11 11 11 11 11 12 12 12 13 13 13 14 13 12 10 9 8 8 8 8 8 8 9 9 10 10 11 12 12 11 9 8 9 10 10 8 7 6
9 9 9 10 10 10 11 11 11 12 12 12 12 13 13 13 13 12 10 9 8 7 7 8 8 8 8 8 9 10 10 11 12 12 10 9 9 10 11 10 10 9
9 10 10 10 10 11 11 11 12 12 12 12 12 13 13 13 13 13 12 10 8 8 7 7 8 8 8 8 8 9 10 10 11 12 12 11 10 10 11 11 11 11
9 10 10 10 11 11 11 11 12 12 12 12 12 12 13 13 14 14 13 11 10 8 7 7 7 8 7 7 7 8 9 9 10 11 12 12 11 11 11 11 11 12
10 10 11 11 11 12 12 12 12 12 12 12 12 12 13 13 14 14 14 13 11 9 8 7 7 7 7 7 7 7 8 9 10 10 11 12 12 12 12 11 11 11
10 11 11 11 11 12 12 12 12 12 12 12 12 12 13 13 14 14 14 14 12 10 8 7 5 6 6 6 6 7 7 8 9 10 10 11 11 12 12 12 12 11
11 11 11 11 12 12 13 13 13 13 12 12 12 12 13 13 14 14 14 14 13 11 9 6 5 4 5 6 6 7 7 8 8 9 9 10 11 11 12 12 12 12
11 11 11 12 12 13 13 13 13 13 12 12 13 13 13 13 14 14 14 14 14 12 10 7 5 3 4 5 5 6 7 7 8 8 9 9 10 11 12 12 13 13
12 12 12 13 13 13 13 14 13 13 13 13 13 13 13 13 13 14 14 14 14 13 11 8 5 2 3 4 4 5 6 7 8 8 8 9 10 11 12 13 13 14
12 13 13 13 13 14 14 14 14 13 14 14 14 13 13 13 13 14 14 14 14 14 13 10 6 3 3 3 3 4 5 7 8 8 9 9 10 11 12 13 13 14
12 12 13 13 13 13 13 13 13 13 14 14 13 13 13 13 14 14 14 14 14 14 14 12 9 5 2 2 4 4 5 6 7 8 10 10 10 11 12 13 14 14
11 11 11 12 12 12 12 12 13 12 13 13 13 13 14 13 14 14 14 14 14 14 14 14 12 8 5 4 4 5 6 7 7 9 10 11 11 12 13 13 14 14
10 10 11 12 12 12 12 12 12 12 13 13 14 14 13 13 14 14 14 13 14 14 14 14 14 12 9 8 7 7 7 8 9 9 11 11 12 13 13 14 14 15
10 10 12 12 12 12 12 12 12 12 13 13 14 14 14 15 14 13 13 13 14 14 14 14 14 14 12 11 10 10 9 10 10 10 11 12 13 13 14 14 15 15

ECMWFNIL_850_dewp_036.txt.gz
Dewpoint
10 10 9 9 9 9 9 9 8 8 8 8 8 8 8 8 8 8 8 8 9 9 9 9 9 8 10 14 15 15 14 15 16 16 16 13 4 2 3 2 6 9
10 10 9 10 10 9 9 9 8 8 8 8 8 8 8 8 8 8 8 9 9 9 8 7 8 7 9 12 14 14 15 16 16 16 16 11 1 1 3 2 3 2
10 12 11 10 10 8 8 9 9 9 8 8 8 7 8 8 8 8 7 9 10 10 10 9 8 7 9 11 12 14 15 16 16 16 16 11 1 1 3 3 6 3
11 12 12 10 9 8 9 10 10 10 9 9 8 8 8 8 8 8 8 8 8 10 12 11 8 7 9 11 12 13 15 16 16 16 16 13 4 0 2 3 8 8
11 11 11 12 12 11 11 11 12 11 11 10 9 8 8 8 8 8 8 8 8 9 10 10 8 8 8 10 12 12 13 15 16 16 16 14 6 0 2 1 4 7
10 11 12 13 13 12 12 13 13 13 12 11 11 10 10 9 8 8 8 8 7 8 9 9 8 8 8 10 11 11 11 13 15 15 15 14 7 1 3 1 0 2
8 10 11 12 12 12 12 13 13 13 13 12 12 12 12 10 9 8 9 8 8 8 9 8 8 8 8 10 11 11 10 10 13 15 14 12 8 3 2 2 2 2
7 8 10 11 12 12 12 12 12 13 13 13 13 13 13 12 10 8 8 9 8 8 8 8 8 8 8 9 10 11 11 9 9 11 10 8 8 5 2 2 2 3
5 7 8 9 10 10 11 11 11 12 12 12 13 13 13 13 11 10 9 8 9 8 8 8 8 8 8 9 10 10 11 10 8 6 4 5 7 6 4 3 3 3
6 7 7 7 8 9 10 10 10 11 11 11 12 13 13 13 12 12 10 10 9 9 9 8 8 8 8 9 10 10 11 11 10 7 4 4 6 7 6 5 4 3
7 7 8 8 8 8 9 9 10 10 11 11 11 12 13 13 12 12 12 11 11 11 10 9 9 9 8 9 9 10 11 11 11 10 6 5 6 7 7 7 6 5
7 7 8 9 9 9 9 10 10 11 11 11 10 11 12 12 12 12 13 13 12 12 11 10 9 9 9 9 8 9 10 11 12 11 9 7 6 6 6 7 8 7
5 6 7 8 9 9 10 10 9 10 12 12 10 10 11 12 13 12 12 13 13 12 12 11 10 9 9 9 8 8 9 11 12 12 11 9 7 6 6 7 7 9
6 6 6 7 8 8 8 9 9 9 11 12 11 10 11 11 12 12 12 13 13 12 12 12 10 10 9 9 8 8 8 10 11 12 12 11 10 7 6 6 7 8
7 7 7 7 8 8 8 8 9 9 10 11 11 10 10 11 11 12 12 12 13 12 12 11 11 10 9 8 8 8 8 8 10 11 12 12 11 9 8 7 6 8
9 8 8 7 8 8 8 8 8 10 10 11 11 10 10 11 11 12 12 13 13 13 12 11 11 10 9 8 8 8 8 8 9 10 11 12 12 11 10 9 7 7
10 8 8 8 8 8 8 8 8 9 10 11 11 11 11 11 11 12 12 13 13 13 13 12 11 9 8 7 7 7 8 8 8 8 10 11 12 12 11 10 8 7
9 9 9 9 9 9 9 9 9 10 11 11 12 12 11 11 11 12 12 13 13 13 13 13 12 10 7 6 6 6 7 8 8 8 9 9 10 11 11 11 10 9
9 9 9 9 10 10 10 11 10 10 11 12 12 12 11 12 12 12 12 12 13 13 13 13 13 11 8 6 5 5 6 8 8 8 8 8 9 10 10 11 11 10
9 9 9 10 10 10 11 11 11 11 11 12 13 13 12 13 13 12 13 12 12 13 13 13 13 12 9 7 5 5 5 6 8 9 9 9 9 10 10 10 10 11
8 8 10 11 11 11 12 11 11 11 11 12 13 13 13 13 13 13 12 12 13 14 13 13 13 13 11 7 5 5 5 6 7 8 9 9 10 10 10 10 10 10
7 8 9 10 11 11 11 11 11 11 11 11 12 13 13 14 14 13 12 12 14 15 14 13 13 14 12 9 5 5 6 7 7 8 8 8 9 10 11 12 12 11
7 7 8 9 10 10 10 10 10 10 10 11 12 12 13 13 13 13 13 13 13 13 13 13 14 13 12 9 5 3 5 6 7 7 8 8 9 10 11 13 14 13
8 7 8 8 9 9 8 9 9 9 10 11 12 12 12 13 13 13 13 13 12 12 12 13 14 13 13 11 7 2 1 3 5 7 7 8 11 12 12 14 15 14
7 7 7 7 8 7 7 8 9 10 11 11 12 12 13 14 14 14 14 14 14 15 15 15 16 16 15 13 10 7 4 3 4 7 7 9 11 12 12 14 15 13
6 7 7 7 7 7 8 9 10 10 11 11 12 12 14 14 15 15 15 16 16 16 17 16 16 18 18 16 14 11 9 6 5 6 6 7 10 11 12 13 14 14

ECMWFNIL_850_dewp_042.txt.gz
Dewpoint
6 6 6 7 8 8 8 8 8 8 10 10 9 8 8 10 12 14 14 12 10 9 9 10 10 11 12 12 13 14 15 15 16 15 13 12 12 9 5 2 5 13
6 6 6 7 7 7 7 7 7 8 8 9 9 9 8 8 10 12 14 14 12 10 9 9 10 10 11 12 12 13 14 14 14 15 13 13 13 10 7 3 2 9
5 6 6 6 6 6 6 6 8 9 9 9 10 11 10 10 10 11 12 14 13 11 9 8 10 10 11 11 11 11 12 12 12 13 13 13 13 12 8 6 4 3
5 5 5 5 5 5 6 6 7 9 10 11 10 11 12 12 12 12 11 12 12 11 9 7 9 11 11 12 12 11 11 10 9 10 12 13 13 13 10 9 10 6
4 4 4 5 5 6 6 6 7 9 11 12 11 11 11 12 13 13 12 12 12 11 10 8 8 9 11 12 12 12 11 9 7 8 11 12 12 13 12 10 12 12
3 4 4 4 5 6 7 6 7 9 10 11 11 11 11 11 12 13 13 13 12 11 11 10 7 8 10 11 12 12 12 9 8 8 11 12 12 13 13 11 10 13
4 4 4 4 5 6 7 7 7 9 10 11 12 12 12 11 10 11 12 13 13 12 12 10 8 7 8 9 10 11 11 10 9 8 9 12 12 12 13 11 8 9
4 3 3 4 5 5 6 7 8 9 10 12 13 13 13 12 11 10 11 13 13 13 12 11 10 9 8 9 8 8 9 10 9 9 9 10 12 12 10 9 8 6
4 3 4 3 4 5 5 6 8 8 9 11 12 13 14 13 13 11 10 11 13 13 13 12 11 10 10 10 10 8 7 7 8 10 10 9 11 12 10 8 8 5
5 4 4 4 3 4 4 5 5 7 8 9 11 13 14 14 14 14 12 10 11 13 14 13 12 11 11 11 11 10 8 7 7 8 10 11 11 12 11 10 9 6
5 5 4 4 4 4 4 4 5 6 7 8 9 11 14 14 14 15 14 11 9 11 13 13 12 12 11 11 12 11 10 8 7 7 10 11 11 11 11 11 10 9
5 5 6 4 4 4 4 5 6 7 8 8 8 9 11 14 15 14 13 12 9 9 11 12 12 13 12 12 12 13 12 10 7 7 8 10 11 10 10 11 11 11
6 5 7 6 5 4 6 8 8 8 10 11 10 10 10 11 14 14 13 12 11 10 11 11 12 12 13 13 13 14 14 13 10 8 7 9 10 11 11 11 11 11
7 5 6 7 6 5 7 10 10 10 12 13 13 13 12 11 13 15 14 13 12 12 12 12 12 12 12 13 13 14 15 14 13 11 9 9 9 10 12 12 12 12
10 7 6 6 7 7 7 9 11 12 13 13 14 15 15 14 14 15 16 16 15 14 13 13 14 13 12 13 13 13 14 15 14 13 12 12 11 11 12 13 13 13
13 11 8 6 6 7 7 7 9 12 13 13 14 15 16 16 16 16 16 17 17 16 16 15 15 14 12 12 12 11 12 13 14 14 14 14 13 12 13 14 14 14
15 13 11 8 6 6 6 7 9 10 12 13 14 15 15 16 16 17 16 16 17 17 17 16 15 14 12 11 10 10 10 11 12 12 13 14 13 13 13 13 13 13
15 15 13 9 6 6 6 6 8 9 11 12 14 15 15 15 16 17 16 16 16 17 18 17 16 15 13 11 9 9 9 10 10 11 12 14 13 13 12 12 13 13
16 15 14 11 8 7 7 8 8 9 10 11 12 14 15 15 15 15 16 15 16 17 17 18 17 16 15 13 11 9 9 10 10 11 12 12 13 13 13 12 12 13
17 16 15 14 11 10 10 11 10 9 9 10 12 13 14 15 14 14 15 15 15 15 16 17 17 17 16 14 12 11 10 9 10 10 10 11 12 12 13 12 11 12
17 16 16 15 14 14 13 12 11 10 10 11 13 13 14 14 14 14 14 15 14 14 15 16 17 17 16 15 14 12 11 11 10 11 11 11 11 12 13 13 12 12
17 17 17 16 16 16 15 14 13 12 12 12 13 14 15 15 15 15 15 15 15 15 14 15 16 17 17 16 15 15 15 14 13 12 12 11 11 12 13 13 13 13
17 17 17 17 17 17 16 15 15 14 14 14 13 14 16 16 16 15 15 15 16 16 15 14 14 16 17 17 17 17 17 17 16 15 14 13 13 13 13 13 13 13
17 17 17 17 17 17 17 17 16 16 16 16 15 15 15 15 16 17 16 16 16 16 16 15 14 15 16 17 18 18 18 18 18 17 16 15 14 14 14 14 13 13
16 17 17 17 17 17 18 18 17 17 17 17 16 16 15 16 17 17 17 17 17 17 16 16 16 16 16 16 18 19 19 19 19 19 18 17 16 16 15 15 15 15
16 16 17 17 18 18 19 19 18 17 17 18 17 17 17 17 17 18 18 18 18 18 18 17 18 18 17 17 17 18 18 19 19 19 19 18 17 17 16 16 16 16

ECMWFNIL_850_dewp_045.txt.gz
Dewpoint
5 5 5 4 4 4 6 6 7 8 9 11 11 10 10 10 10 11 9 8 9 9 9 9 10 11 11 12 13 13 13 14 14 14 14 13 11 11 11 8 7 7
5 5 4 4 4 4 5 5 5 6 6 9 10 10 10 10 10 10 9 9 9 9 9 10 10 10 10 11 12 13 13 13 13 13 13 12 11 11 11 9 5 4
5 5 4 4 4 3 4 5 5 5 5 6 8 10 10 11 11 10 9 9 9 9 9 10 10 10 10 10 11 12 12 13 13 12 12 12 11 11 11 10 6 1
4 4 3 3 3 3 3 4 5 4 5 6 7 8 10 12 12 11 10 10 9 9 9 9 10 9 9 10 10 11 11 12 12 12 12 11 11 11 10 11 8 3
3 2 3 3 3 3 4 4 4 4 4 5 5 7 9 11 12 12 11 10 9 9 9 9 9 9 9 9 10 11 11 11 11 11 12 11 10 10 10 11 10 7
3 3 3 2 3 3 4 3 3 3 3 3 4 6 7 9 11 11 12 11 10 10 9 9 9 8 8 8 9 10 10 10 10 10 11 10 9 9 10 10 10 10
6 4 3 3 3 3 3 3 3 3 3 4 4 5 6 8 9 10 11 12 12 11 9 9 8 7 7 7 8 9 10 10 10 10 10 9 8 8 9 10 10 10
7 6 5 4 4 3 3 3 3 3 3 5 5 5 5 7 8 9 11 12 13 11 10 9 8 7 6 6 6 7 8 9 9 9 10 9 8 7 8 10 10 9
9 8 7 6 6 5 3 3 3 3 4 4 5 5 6 6 7 9 11 12 13 12 11 10 8 7 6 6 6 6 7 7 8 8 8 9 8 8 8 9 10 9
11 8 8 7 7 5 4 4 3 4 4 5 5 6 6 6 6 9 11 11 12 12 12 10 8 7 6 6 5 6 6 6 7 7 7 7 7 8 8 8 8 9
12 10 9 8 7 6 5 4 4 5 4 5 5 6 7 7 8 9 11 11 11 11 10 9 8 7 7 6 5 5 6 6 7 7 7 6 6 7 7 8 8 8
13 12 10 8 7 6 5 5 5 5 5 5 5 6 7 8 9 9 10 10 10 10 9 8 8 8 7 6 5 5 5 6 6 7 7 7 7 6 6 7 7 7
13 12 10 8 7 6 5 5 5 5 5 6 5 7 8 8 9 9 9 9 9 10 10 9 8 8 8 7 7 7 7 7 6 7 7 7 7 6 6 6 6 7
13 11 10 8 7 6 6 5 5 6 6 6 6 7 8 8 8 8 7 8 9 9 9 9 9 9 9 9 9 9 9 9 8 7 7 8 8 8 8 7 6 6
15 13 11 10 8 7 7 6 5 6 7 8 7 7 6 7 8 8 8 8 8 9 9 10 11 11 10 10 10 9 10 10 9 9 8 9 9 9 8 8 7 7
16 14 13 12 11 9 7 6 6 7 7 8 8 7 7 7 8 9 10 9 9 10 11 12 12 12 11 11 10 9 9 10 10 10 10 9 10 10 10 9 8 7
17 16 14 13 12 10 8 7 7 7 8 9 9 8 8 8 8 10 11 11 11 12 12 13 13 12 12 12 11 11 11 11 11 10 10 10 10 10 10 9 8 8
18 17 15 14 13 11 9 8 8 9 9 9 10 9 9 8 8 10 11 12 12 13 14 14 13 13 13 13 13 12 12 12 12 12 12 11 10 10 9 9 9 9
18 18 17 15 14 12 11 10 10 10 10 9 9 9 9 9 9 9 10 12 13 14 14 14 14 13 14 14 14 13 13 13 12 13 12 12 11 10 9 9 10 10
18 17 17 16 15 14 13 13 12 11 10 10 9 9 10 10 10 10 10 12 13 14 14 13 13 13 14 14 14 14 14 14 14 13 13 13 12 11 11 10 10 10
17 17 16 16 16 15 14 14 13 11 11 11 10 9 9 9 10 10 10 10 12 13 14 14 13 13 12 13 14 14 14 15 15 15 15 14 13 13 12 12 12 11
17 17 16 16 16 16 16 15 14 13 12 11 11 10 10 10 10 9 10 10 10 11 13 14 14 14 14 14 14 14 15 16 16 16 16 16 15 15 14 14 14 13
17 17 16 16 15 16 16 15 14 14 13 12 12 12 12 11 10 10 10 10 11 11 11 12 13 15 16 16 16 16 17 17 17 17 17 17 16 16 16 15 15 15
16 16 16 16 15 15 15 15 15 15 14 14 13 13 12 12 11 11 11 12 12 12 12 12 13 14 15 16 17 17 18 18 18 18 18 17 18 18 17 17 16 16
16 16 17 16 16 16 15 16 15 15 15 15 15 14 13 13 13 14 14 14 14 14 14 14 15 15 15 16 17 17 18 19 19 19 19 18 18 18 18 18 17 17
16 16 17 16 17 16 16 16 16 16 16 16 16 16 15 15 15 15 15 15 15 15 15 16 16 16 17 17 17 17 18 18 19 19 19 19 19 19 19 18 18 18

ECMWFNIL_850_dewp_048.txt.gz
Dewpoint
9 7 6 6 6 6 6 6 5 5 4 5 6 6 6 6 7 9 9 9 8 8 8 8 9 11 12 13 14 14 14 13 14 15 14 14 13 12 11 10 9 9
10 8 7 6 7 7 7 6 5 4 3 5 6 6 7 7 8 9 9 9 9 8 8 9 9 10 11 12 13 13 13 13 13 14 14 14 13 12 11 10 8 6
11 10 8 7 6 6 6 6 6 5 4 5 6 6 6 7 7 8 9 9 9 9 8 9 9 9 10 11 12 12 13 12 12 13 14 14 13 12 11 11 10 6
12 10 9 7 6 5 5 5 5 5 5 5 6 7 6 6 7 8 9 9 9 8 9 9 9 9 10 10 11 11 11 12 12 12 13 13 13 12 11 11 11 8
12 11 9 8 7 6 5 5 5 4 4 4 5 6 7 7 6 7 9 9 8 8 9 9 9 9 10 10 10 10 11 11 12 12 12 12 12 11 11 11 11 10
13 12 11 10 9 8 6 5 4 4 3 3 3 5 6 6 6 6 8 9 9 8 8 9 9 9 9 9 9 9 10 10 10 10 10 10 11 11 11 10 9 9
13 12 11 11 11 10 8 5 5 4 3 3 3 3 4 4 4 4 5 7 8 8 7 8 8 8 8 8 8 8 9 9 10 10 10 9 9 9 9 9 9 8
13 12 11 11 12 12 10 8 6 4 3 3 3 2 3 3 3 3 4 5 7 7 7 6 6 7 7 7 7 7 8 8 9 9 9 9 9 9 9 8 8 8
13 12 11 11 11 11 11 9 7 6 4 3 3 3 2 2 2 2 3 4 5 6 6 6 6 6 6 7 6 6 7 7 7 8 8 9 9 8 9 9 8 8
14 13 11 11 11 11 10 9 8 7 6 5 4 3 3 2 2 2 3 4 5 5 6 6 5 5 6 7 7 6 6 6 6 6 6 6 7 7 7 8 8 8
15 13 12 11 10 10 9 8 8 8 7 6 5 4 4 3 2 3 3 4 4 5 5 5 5 5 6 6 6 6 6 6 6 6 6 5 5 5 5 6 7 7
16 15 14 12 11 9 9 9 8 8 7 6 5 5 4 4 3 4 3 4 4 4 5 5 5 6 6 6 7 7 6 6 6 6 6 6 6 5 5 5 5 5
16 16 15 14 12 10 9 9 9 9 8 6 5 4 4 4 3 4 3 3 4 4 4 5 6 7 7 7 7 8 7 7 7 6 6 6 6 6 6 6 5 5
17 16 15 14 13 12 10 9 10 10 9 7 6 5 5 4 3 3 3 3 4 4 5 5 6 8 8 8 8 9 9 8 8 7 7 6 6 6 6 6 6 6
17 17 16 15 14 13 12 11 10 10 10 9 8 6 4 4 4 4 4 4 4 5 5 6 7 8 8 8 8 8 8 8 8 8 8 8 7 7 6 7 7 7
17 17 17 16 15 14 13 12 11 11 11 11 9 7 6 5 5 5 4 5 4 5 6 6 7 8 7 7 7 7 8 8 8 8 8 9 9 9 8 9 8 8
18 17 17 17 16 16 15 14 13 12 12 12 11 9 7 6 6 6 5 5 5 5 6 7 7 7 7 7 7 7 9 9 9 9 9 10 10 10 10 10 9 9
18 18 18 18 17 17 16 15 15 14 13 13 12 10 8 8 7 6 6 6 6 6 6 7 7 6 6 7 7 8 10 11 12 11 11 11 11 11 11 11 11 11
18 18 18 18 18 18 17 17 16 15 15 14 13 11 10 9 8 7 7 6 7 7 7 6 6 6 6 7 7 8 10 12 13 13 13 12 12 12 12 12 12 12
18 18 18 19 18 18 18 18 17 16 15 14 13 12 11 10 9 9 8 7 8 8 8 7 6 6 6 7 8 9 10 12 13 13 14 14 13 13 13 13 13 13
18 18 18 19 19 19 18 18 18 17 16 15 14 13 12 11 9 9 8 8 8 8 8 8 7 6 7 8 8 9 11 13 14 14 15 15 14 15 14 14 14 14
18 18 18 18 18 19 19 18 18 17 16 16 15 14 13 12 11 10 10 9 9 9 10 9 7 7 7 8 9 10 12 14 15 15 15 15 15 15 15 15 15 15
18 18 18 18 18 18 18 18 18 18 17 16 15 15 14 13 12 12 11 10 10 11 11 10 9 9 9 9 10 12 14 15 15 16 16 16 16 16 16 16 16 16
18 18 18 18 18 18 18 18 18 18 17 17 16 15 14 13 13 12 12 12 12 11 11 12 12 12 12 13 13 14 15 15 16 16 16 17 17 17 17 17 17 17
17 18 17 17 18 17 18 18 17 17 17 17 16 16 15 14 13 13 13 12 12 12 12 13 14 14 15 15 15 16 16 16 17 17 17 17 17 17 17 17 17 17
17 17 17 17 17 17 17 17 17 17 17 17 17 16 16 15 15 14 13 13 13 13 13 13 14 14 15 15 16 16 17 17 17 17 17 17 17 17 17 17 17 18